Location: Ottobeuren
(47.9410°N, 10.3007°E)
Time: 11:54:31
(UTC+01:00)

Envisat - Visible Passes

Search period start: 28 February 2024 00:00
Search period end: 09 March 2024 00:00
Orbit: 762 x 764 km, 98.3° (Epoch: 28 February)

Date Brightness Start Highest point End Pass type
(mag) Time Alt. Az. Time Alt. Az. Time Alt. Az.
28 Feb 5.7 02:39:53 10° NE 02:41:16 15° ENE 02:41:16 15° ENE visible
28 Feb 3.7 04:17:56 10° N 04:21:27 42° NNW 04:21:27 42° NNW visible
28 Feb 4.9 05:59:48 10° NW 06:00:55 11° NW 06:01:37 10° WNW visible
29 Feb 4.2 03:40:36 10° NNE 03:43:51 39° NE 03:43:51 39° NE visible
29 Feb 4.4 05:20:30 10° NNW 05:24:01 20° WNW 05:24:01 20° WNW visible
01 Mar 5.0 03:03:40 10° NNE 03:06:15 24° ENE 03:06:15 24° ENE visible
01 Mar 3.7 04:42:32 10° N 04:46:25 36° NW 04:46:25 36° NW visible
02 Mar 5.8 02:27:33 10° NE 02:28:39 13° ENE 02:28:39 13° ENE visible
02 Mar 3.5 04:04:58 10° NNE 04:08:50 52° N 04:08:50 52° N visible
02 Mar 4.7 05:45:50 10° NNW 05:48:13 13° NW 05:49:00 13° WNW visible
03 Mar 4.2 03:27:46 10° NNE 03:31:14 38° NE 03:31:14 38° NE visible
03 Mar 4.1 05:07:19 10° N 05:11:24 25° WNW 05:11:25 25° WNW visible
04 Mar 5.2 02:51:01 10° NE 02:53:39 21° ENE 02:53:39 21° ENE visible
04 Mar 3.4 04:29:30 10° N 04:33:49 46° NW 04:33:49 46° NW visible
05 Mar 5.9 02:15:38 10° ENE 02:16:03 11° ENE 02:16:03 11° ENE visible
05 Mar 3.4 03:52:04 10° NNE 03:56:14 60° NNE 03:56:14 60° NNE visible
05 Mar 4.5 05:32:22 10° NNW 05:35:30 17° WNW 05:36:24 16° WNW visible
06 Mar 4.4 03:14:58 10° NNE 03:18:38 35° ENE 03:18:38 35° ENE visible
06 Mar 3.8 04:54:11 10° N 04:58:37 31° WNW 04:58:49 31° WNW visible
07 Mar 5.4 02:38:30 10° NE 02:41:02 18° ENE 02:41:02 18° ENE visible
07 Mar 3.0 04:16:31 10° N 04:21:13 60° NW 04:21:13 60° NW visible
07 Mar 4.9 05:58:17 10° NW 05:59:31 11° NW 06:00:45 10° WNW visible
08 Mar 3.4 03:39:11 10° NNE 03:43:37 59° ENE 03:43:37 59° ENE visible
08 Mar 4.3 05:19:04 10° NNW 05:22:46 21° WNW 05:23:47 19° WNW visible
